Погода в Соколовом

Россия / Саратовская область     51°34′10″N   45°50′06″E
В апреле 2022 года жителям России запретили посещать сайт meteo.paraplan.net по решению Генеральной прокуратуры. Аудитория сайта уменьшилась в 10 раз. Владельцы сайта не видят смысла в поддержке погодного сервера в таких условиях. Сайт будет закрыт в октябре.
темп.,
°C
ветер,
м/с
пор.,
м/с
влажн.,
%
обл.,
%
осадки,
мм/ч
давл.,
гПа
погр.,
м
4 октября, вт
вт401:00+13ююв6993100 0.1 1016404
04:00+12ююв699498 0.1 1017431
07:00+12ююв5996100 0.1 1018370
10:00+13ююв588998 0.1 1019393
13:00+14ю6117288 0.0 1020787
16:00+14ююв81164100 0.0 1019607
19:00+11ююв61293100 4.1 1021608
22:00+9юв61191100 4.4 1022540
5 октября, ср
ср501:00+9ююв51189100 0.1 1021514
04:00+10ююв599244 0.1 1021410
07:00+9юв359223 0.0 1021148
10:00+13ю347487 0.0 1020302
13:00+16ю4565100 0.0 1020848
16:00+15ююв4772100 0.1 1019530
19:00+13юз378599 1.5 1020261
22:00+11зюз410700 1.6 1020211
6 октября, чт
чт601:00+9з410765 0.0 1020288
04:00+8з49835 0.0 1020275
07:00+7з410905 0.0 1020294
10:00+9з687313 0.0 1020785
13:00+11з7957100 0.1 10201498
16:00+11зсз6106196 0.1 10201331
19:00+9зсз487657 0.1 1022346
22:00+9зсз5980100 0.2 1022613
7 октября, пт
пт701:00+8з36919 0.1 1022224
04:00+8зсз368779 0.1 1023221
07:00+7з229378 0.0 102344
10:00+11зюз4686100 0.0 1022366
13:00+15з686798 0.0 1021859
16:00+17зсз79525 0.0 10201190
19:00+13зсз49720 0.0 1022164
22:00+13сз487692 0.0 1023264
8 октября, сб
сб801:00+10сз48890 0.0 1025173
04:00+8ссз34900 0.0 102674
07:00+8ссз11900 0.0 102817
10:00+11с11700 0.0 1028329
13:00+14ююв11540 0.0 1028763
16:00+15ююв22510 0.0 1026846
19:00+11юв22690 0.0 102722
22:00+10ююв22695 0.0 102717